SCP
0 0 0 0 0 0 0 -0 -0 -0 -0 -0 -0 -0 0 0 0 -0 0 0 0 0 0 0 0 0 0 0 0 0 0 0 0 0 0 0 -0 -0 0 0 -0 -0 -0 -0 -0 -0 -0 -0 -0
0 0 0 0 0 0 -0 -0 -0 0 0 0 -0 -0 0 0 0 0 0 0 0 0 0 0 0 0 0 0 0 0 0 0 0 0 0 0 0 -0 -0 0 0 0 0 0 0 0 0 0 0
0 0 0 0 0 0 -0 -0 -0 -0 0 0 -0 0 -0 -0 0 0 0 0 0 0 0 0 0 0 0 0 0 0 0 0 0 0 0 0 0 0 0 0 -0 -0 -0 -0 0 0 0 0 0
0 0 0 0 0 0 -0 0 -0 -0 -0 -0 -0 0 0 0 0 0 0 -0 0 0 0 0 0 0 0 0 0 0 0 0 0 0 0 0 0 0 0 0 0 0 0 0 0 0 0 0 0
0 0 0 0 0 0 0 0 0 0 -0 -0 -0 -0 0 0 0 0 -0 -0 -0 0 0 0 0 0 0 0 0 0 0 0 0 0 0 0 0 0 0 0 0 0 0 0 0 0 0 0 0
0 0 0 0 0 0 0 0 0 0 -0 -0 0 -0 0 0 0 0 -0 0 0 -0 -0 0 -0 -0 -0 -0 0 0 0 0 0 0 0 0 0 0 0 0 0 0 0 0 0 0 0 0 0
0 0 0 0 0 0 0 0 0 0 -0 -0 -0 0 0 0 0 0 0 -0 0 0 -0 -0 -0 -0 -0 -0 -0 0 0 0 0 0 0 0 0 0 0 0 0 0 0 0 0 0 0 0 0
0 0 0 0 0 0 0 0 0 0 -0 0 -0 -0 -0 -0 0 0 0 0 0 0 0 -0 -0 -0 0 0 0 0 0 0 0 0 0 0 0 0 0 0 0 0 0 0 0 0 0 0 0
0 0 0 0 0 0 0 0 0 0 0 0 -0 -0 -0 0 0 0 0 0 0 0 0 0 0 0 0 0 0 0 0 0 0 0 0 0 0 0 0 0 0 0 0 0 0 0 0 0 0
0 0 0 0 0 0 0 0 0 0 0 0 0 0 0 0 0 0 0 0 0 0 0 0 0 0 0 0 0 0 0 0 0 0 0 0 0 0 0 0 0 0 0 0 0 0 0 0 0
0 0 0 0 0 0 0 0 0 0 0 0 0 0 0 0 0 0 0 0 0 0 0 0 0 0 0 0 0 0 0 0 0 0 0 0 0 0 0 0 0 0 0 0 0 0 0 0 0
0 0 0 0 0 0 0 0 0 0 0 0 0 0 0 0 0 0 0 0 0 0 0 0 0 0 0 0 0 0 0 0 0 0 0 0 0 0 0 0 0 0 0 0 0 0 0 0 0
0 0 0 0 0 0 0 0 0 0 0 0 0 0 0 0 0 0 0 0 0 0 0 0 0 0 0 0 0 0 0 0 0 0 0 0 0 0 0 0 0 0 0 0 0 0 0 0 0
0 0 0 0 0 0 0 0 0 0 0 0 0 0 0 0 0 0 0 0 0 0 0 0 0 0 0 0 0 0 0 0 0 0 0 0 0 0 0 0 0 0 0 0 0 0 0 0 0
0 0 0 0 0 0 0 0 0 0 0 0 0 0 0 0 0 0 0 0 0 0 0 0 0 0 0 0 0 0 0 0 0 0 0 0 0 0 0 0 0 0 0 0 0 0 0 0 0
0 0 0 0 0 0 0 0 0 0 0 0 0 0 0 0 0 0 0 0 0 0 0 0 0 0 0 0 0 0 0 0 0 0 0 0 0 0 0 0 0 0 0 0 0 0 0 0 0
0 0 0 0 0 0 0 0 0 0 0 0 0 0 0 0 0 0 0 0 0 0 0 0 0 0 0 0 0 0 0 0 0 0 0 0 0 0 0 0 0 0 0 0 0 0 0 0 0
0 0 0 0 0 0 0 0 0 0 0 0 0 0 0 0 0 0 0 0 0 0 0 0 0 0 0 0 0 0 0 0 0 0 0 0 0 0 0 0 0 0 0 0 0 0 0 0 0
0 0 0 0 0 0 0 0 0 0 0 0 0 0 0 0 0 0 0 0 0 0 0 0 0 0 0 0 0 0 0 0 0 0 0 0 0 0 0 0 0 0 0 0 0 0 0 0 0
0 0 0 0 0 0 0 0 0 0 0 0 0 0 0 0 0 0 0 0 0 0 0 0 0 0 0 0 0 0 0 0 0 0 0 0 0 0 0 0 0 0 0 0 0 0 0 0 0
0 0 0 0 0 0 0 0 0 0 0 0 0 0 0 0 0 0 0 0 0 0 0 0 0 0 0 0 0 0 0 0 0 0 0 0 0 0 0 0 0 0 0 0 0 0 0 0 0
0 0 0 0 0 0 0 0 0 0 0 0 0 0 0 0 0 0 0 0 0 0 0 0 0 0 0 0 0 0 0 0 0 0 0 0 0 0 0 0 0 0 0 0 0 0 0 0 0
0 0 0 0 0 0 0 0 0 0 0 0 0 0 0 0 0 0 0 0 0 0 0 0 0 0 0 0 0 0 0 0 0 0 0 0 0 0 0 0 0 0 0 0 0 0 0 0 0
0 0 0 0 0 0 0 0 0 0 0 0 0 0 0 0 0 0 0 0 0 0 0 0 0 0 0 0 0 0 0 0 0 0 0 0 0 0 0 0 0 0 0 0 0 0 0 0 0
0 0 0 0 0 0 0 0 0 0 0 0 0 0 0 0 0 0 0 0 0 0 0 0 0 0 0 0 0 0 0 0 0 0 0 0 0 0 0 0 0 0 0 0 0 0 0 0 0
0 0 0 0 0 0 0 0 0 0 0 0 0 0 0 0 0 0 0 0 0 0 0 0 0 0 0 0 0 0 0 0 0 0 0 0 0 0 0 0 0 0 0 0 0 0 0 0 0
0 0 0 0 0 0 0 0 0 0 0 0 0 0 0 0 0 0 0 0 0 0 0 0 0 0 0 0 0 0 0 0 0 0 0 0 0 0 0 0 0 0 0 0 0 0 0 0 0
0 0 0 0 0 0 0 0 0 0 0 0 0 0 0 0 0 0 0 0 0 0 0 0 0 0 0 0 0 0 0 0 0 0 0 0 0 0 0 0 0 0 0 0 0 0 0 0 0
0 0 0 0 0 0 0 0 0 0 0 0 0 0 0 0 0 0 0 0 0 0 0 0 0 0 0 0 0 0 0 0 0 0 0 0 0 0 0 0 0 0 0 0 0 0 0 0 0
0 0 0 0 0 0 0 0 0 0 0 0 0 0 0 0 0 0 0 0 0 0 0 0 0 0 0 0 0 0 0 0 0 0 0 0 0 0 0 0 0 0 0 0 0 0 0 0 0
Wind_Speed_500mb
14 8 13 8 7 8 2 4 1 6 3 4 12 9 8 8 3 5 32 23 20 20 19 18 13 10 11 13 14 12 11 11 11 12 9 9 8 8 7 9 9 13 13 12 8 6 5 8 12
11 8 12 8 8 5 3 3 9 6 16 31 21 13 7 5 7 20 27 22 23 19 17 14 15 12 11 12 14 14 13 13 18 12 4 5 10 15 20 18 20 16 14 14 9 7 4 6 8
8 6 6 8 6 6 8 9 11 17 20 9 9 11 8 6 12 20 19 23 26 21 17 14 14 12 10 11 12 13 13 13 13 9 4 6 13 16 17 12 8 8 12 10 7 7 4 4 5
6 5 11 8 7 5 5 11 17 25 4 6 19 12 10 10 11 11 23 24 23 21 20 15 12 10 8 9 9 11 11 9 7 8 9 12 5 5 10 11 10 12 14 13 10 11 5 3 5
6 7 8 8 3 3 4 17 45 12 12 13 10 10 12 11 12 16 23 23 23 24 18 15 11 9 6 5 6 7 8 8 5 4 5 6 6 2 6 9 11 13 14 11 10 5 0 6 8
8 6 8 6 5 2 1 20 22 11 15 17 13 19 11 15 18 22 23 24 22 15 13 11 9 8 6 3 3 3 4 5 5 2 1 2 2 0 4 5 6 7 9 11 9 6 3 6 9
11 7 8 9 10 5 10 26 19 16 15 12 20 11 14 23 23 25 25 23 19 16 13 11 7 6 3 2 2 4 5 4 3 2 2 4 5 6 6 7 8 7 7 6 7 7 7 9 9
7 10 7 5 9 7 12 25 14 19 12 12 20 9 11 33 29 28 25 21 17 14 12 10 9 7 5 2 3 6 7 8 7 6 6 7 8 9 9 8 9 10 10 10 10 10 11 12 13
6 8 5 11 13 6 19 9 14 13 18 16 18 11 17 36 35 30 26 22 18 13 10 8 8 6 5 2 3 6 8 10 10 11 11 11 11 12 13 13 13 12 11 11 12 14 16 18 17
9 7 14 5 7 5 10 9 26 13 19 14 25 21 27 37 37 33 28 22 17 12 8 5 4 2 1 2 4 7 7 6 10 14 15 16 15 16 16 16 17 16 16 15 15 18 19 19 18
6 8 10 5 6 4 6 10 21 19 6 27 46 37 35 43 40 34 29 22 16 13 9 5 5 7 8 8 10 9 9 9 8 9 12 12 18 15 14 14 15 15 15 15 18 19 20 20 19
6 7 10 8 5 8 7 10 12 24 12 28 28 35 38 48 44 37 30 25 21 13 9 10 12 14 16 18 18 16 15 13 11 11 12 16 19 16 16 14 15 18 19 19 21 20 19 21 22
5 7 9 10 5 5 9 8 10 23 21 19 31 38 44 48 42 33 26 24 21 14 15 18 20 20 21 23 22 23 21 18 15 16 17 16 16 14 14 19 18 21 21 23 24 25 25 23 23
5 7 7 8 7 3 7 7 8 12 22 22 31 42 47 49 41 34 31 27 23 20 23 22 20 18 17 18 20 24 27 26 25 24 23 24 22 22 23 22 22 25 23 26 29 30 30 28 26
9 5 5 8 8 5 4 7 12 14 17 21 34 43 47 43 40 37 33 28 25 26 26 23 20 17 16 18 20 23 27 30 31 30 28 29 31 29 29 30 30 28 29 29 31 33 34 32 30
8 9 4 3 7 5 9 16 8 20 23 22 32 40 42 42 43 38 34 30 29 29 28 25 24 24 24 25 27 26 26 28 32 35 35 35 37 35 38 39 35 36 34 33 34 31 35 32 31
11 7 8 13 5 1 5 14 7 20 21 25 27 36 37 39 39 38 36 34 32 31 29 28 28 28 29 30 32 32 32 33 35 36 38 37 39 42 44 44 41 37 34 35 35 35 36 36 34
11 6 4 6 5 5 1 18 9 5 10 18 30 34 35 37 41 41 38 35 34 34 32 29 29 29 30 30 32 35 39 41 43 42 42 40 39 38 39 38 36 35 34 36 41 36 39 38 38
13 8 4 5 5 2 9 14 25 34 30 33 32 33 36 38 45 46 40 35 33 31 27 25 27 29 30 30 33 37 37 37 35 34 34 32 29 26 26 26 33 36 35 34 36 36 39 37 38
7 8 5 4 3 7 7 21 25 22 27 48 56 54 48 42 42 51 44 38 34 30 27 26 27 27 27 27 27 24 24 23 20 16 14 12 10 14 20 27 28 32 32 31 35 38 36 35 36
4 9 6 5 4 3 10 14 11 7 18 41 53 50 50 56 50 51 50 40 33 29 25 23 21 20 19 17 15 14 12 7 2 2 5 12 16 15 21 22 26 28 32 39 42 36 33 30 29
8 11 9 5 5 6 6 10 11 8 14 10 26 21 36 51 52 53 50 42 34 27 21 18 16 12 9 6 5 4 2 3 5 10 14 17 18 20 25 35 38 38 31 23 21 20 19 19 19
10 10 10 4 6 5 4 2 15 8 10 7 15 7 12 27 47 54 47 40 32 23 18 14 9 5 5 4 5 6 6 6 11 15 18 22 25 27 30 31 26 23 20 18 17 17 17 18 20
16 12 11 7 4 3 8 8 9 7 4 7 8 7 6 14 31 46 43 34 24 19 15 9 8 8 7 5 3 2 5 9 12 16 19 20 22 24 24 23 21 20 18 18 17 17 17 19 20
4 10 5 6 4 9 3 3 18 13 10 8 17 5 8 18 32 38 35 30 25 19 14 13 12 9 7 5 3 3 6 8 12 16 19 21 21 21 21 20 20 19 18 18 16 16 17 19 21
8 10 9 12 7 6 2 10 10 3 6 10 4 18 23 28 30 30 28 25 21 20 20 19 15 11 8 6 6 7 10 12 15 19 21 21 22 22 22 22 21 19 17 16 17 19 20 20 20
11 7 8 11 5 3 7 11 16 3 7 12 16 25 27 27 27 25 19 18 20 23 24 18 13 7 5 7 10 12 15 17 19 21 23 24 24 24 24 23 21 19 18 18 19 19 19 18 17
9 15 6 5 2 8 7 8 9 4 4 5 9 22 23 22 22 22 14 15 21 23 16 12 9 6 9 13 16 19 21 23 24 24 25 26 27 26 25 24 22 20 20 20 19 17 16 15 14
7 5 7 8 7 8 2 9 10 7 8 12 21 23 24 21 20 17 14 15 17 18 15 13 13 14 20 23 22 24 26 27 28 28 29 28 28 27 26 24 23 22 21 20 18 16 14 13 12
4 12 10 8 9 5 5 10 3 11 15 20 24 23 22 22 19 14 11 11 11 12 14 17 21 24 26 28 28 29 30 30 30 30 30 30 28 27 26 24 23 22 21 18 16 13 11 11 10
Wind_Direction_500mb
11 96 130 134 67 67 90 201 169 138 143 143 132 127 147 63 142 147 145 142 143 144 138 136 134 109 81 80 86 113 132 134 122 102 108 102 75 57 71 75 81 77 61 57 89 83 78 45 35
23 127 127 109 87 83 242 211 162 188 132 118 105 106 70 81 79 135 149 148 141 141 137 130 118 105 83 76 79 94 109 119 121 135 148 66 55 69 76 66 75 74 43 38 50 69 71 42 33
25 123 127 93 106 163 175 189 166 143 135 138 113 85 97 101 117 143 155 160 144 140 142 131 116 105 88 72 69 74 94 110 128 154 153 86 73 72 72 80 63 17 20 27 68 68 59 31 25
37 115 69 84 139 218 206 168 161 149 166 140 129 81 96 119 124 138 147 151 145 144 146 133 119 108 96 76 68 65 68 86 109 106 102 102 82 42 46 52 38 34 42 65 71 92 78 51 357
85 87 66 84 157 245 259 171 158 152 149 141 140 151 118 132 127 135 143 140 140 142 140 132 127 118 106 84 64 58 55 61 81 105 103 103 112 223 8 37 47 50 48 54 71 83 279 326 333
84 78 72 159 198 257 180 168 159 148 152 154 129 134 131 138 133 137 137 136 139 142 139 135 135 141 128 110 48 33 35 36 37 61 39 148 143 200 341 6 21 32 40 46 45 32 8 337 321
100 77 157 142 163 161 190 168 169 171 164 195 156 124 146 152 146 144 144 139 134 134 131 123 121 135 129 94 3 331 329 326 328 335 297 272 282 297 323 333 341 342 343 358 4 11 6 355 347
78 93 113 178 178 194 171 163 185 172 189 161 165 172 178 169 159 156 157 157 155 148 142 129 117 115 127 106 344 303 291 288 289 290 287 280 281 286 294 296 304 315 326 312 324 329 332 333 327
86 66 159 191 156 179 158 157 165 186 162 168 188 176 164 170 165 166 170 172 172 166 159 142 133 124 112 80 350 336 298 282 287 283 275 275 278 284 286 290 289 295 301 313 314 313 312 314 321
81 106 206 194 174 135 172 183 163 163 165 197 188 181 172 178 176 174 176 176 169 167 164 163 180 180 61 2 344 346 334 336 314 285 286 280 275 276 283 287 290 287 288 296 301 308 309 307 311
117 159 166 170 161 191 169 193 175 152 217 203 200 186 182 185 187 183 175 173 157 167 183 195 251 271 288 299 296 308 315 311 324 356 16 337 288 275 281 284 284 288 285 288 299 303 308 306 310
118 136 153 160 183 166 182 168 195 202 196 212 216 206 197 191 193 189 185 178 172 178 203 234 251 263 275 277 280 279 285 297 308 311 329 344 345 317 301 307 300 308 308 300 296 300 303 302 307
145 149 140 145 147 154 180 194 212 231 218 226 215 206 206 197 196 192 190 186 192 204 220 236 248 262 269 269 270 271 272 277 288 287 284 295 311 306 303 298 302 305 301 296 294 299 304 304 307
154 126 128 165 181 200 179 194 193 227 212 222 208 201 198 195 195 196 201 205 216 218 227 238 254 271 268 264 271 273 266 262 266 274 279 284 289 291 300 308 304 302 310 300 297 297 297 298 302
107 89 353 206 187 203 140 245 223 202 200 202 195 194 192 193 196 202 209 219 223 221 230 244 254 259 267 267 274 280 275 266 265 268 273 272 278 286 292 293 296 301 300 302 304 298 298 296 294
82 52 123 337 158 199 143 263 232 191 192 192 194 193 195 195 201 208 212 221 227 234 237 244 248 250 256 264 271 276 278 272 268 267 265 264 263 262 269 269 272 282 291 293 293 292 291 295 301
8 193 201 320 210 21 129 264 286 197 211 207 199 203 203 204 207 213 219 226 233 233 234 240 246 251 256 262 269 275 279 280 277 274 272 269 266 265 267 271 272 276 281 287 289 293 296 300 296
179 172 213 230 346 66 345 264 274 262 247 230 222 218 217 215 216 221 224 226 226 227 231 240 245 253 260 267 273 278 279 276 272 268 269 272 270 270 271 274 278 279 283 281 283 285 287 288 288
126 118 176 242 320 255 241 260 271 271 262 251 243 233 224 226 222 225 224 220 215 215 222 236 253 262 270 278 282 282 282 277 270 267 268 270 273 278 278 264 278 289 283 288 289 289 287 293 293
116 116 221 296 356 191 324 278 264 235 247 248 249 240 234 229 225 222 222 215 210 213 223 239 253 265 273 280 286 285 286 278 274 267 266 274 279 283 281 283 283 287 287 285 286 285 284 286 291
107 160 191 193 343 61 330 290 303 285 247 253 253 254 249 238 227 220 216 214 213 218 228 244 257 264 272 279 281 285 301 296 286 261 276 272 290 289 287 286 283 282 281 282 287 289 288 290 290
157 193 145 142 67 243 30 289 301 283 280 270 270 255 248 239 229 220 208 208 210 218 231 245 251 258 270 270 247 230 216 228 253 261 267 278 287 291 288 289 290 289 290 295 299 302 304 306 304
203 137 159 109 99 40 311 226 274 334 306 352 6 265 257 231 223 209 200 199 204 213 221 226 226 212 189 184 194 213 226 258 262 265 274 283 287 288 289 296 300 298 300 303 304 310 315 316 313
153 91 55 57 85 336 245 178 272 240 229 312 352 282 241 198 193 189 187 190 196 203 208 196 170 161 148 145 148 217 250 262 271 276 281 290 294 295 296 295 296 297 300 302 307 313 319 319 316
100 104 25 356 356 227 343 159 252 272 284 271 299 212 145 150 165 174 180 180 184 188 174 159 155 142 116 93 55 341 310 299 291 290 292 295 296 299 298 297 295 297 300 302 306 311 315 318 318
167 145 155 204 199 272 92 233 247 193 344 341 165 146 140 145 156 163 166 170 172 162 157 156 142 110 82 41 359 328 314 306 301 300 302 304 303 301 300 297 297 299 297 296 301 307 310 314 317
182 194 153 106 29 35 217 285 300 93 50 68 127 140 147 152 154 156 154 160 162 161 160 149 130 105 34 342 319 311 307 304 301 299 297 296 295 294 292 289 288 287 287 290 296 300 305 310 313
162 155 87 15 197 259 279 270 245 351 27 127 182 164 154 153 157 159 156 162 169 170 163 171 196 251 281 292 302 308 308 307 304 300 299 295 293 290 287 285 285 285 285 288 290 293 300 307 312
145 191 73 125 143 176 272 259 216 237 254 206 195 174 162 155 150 147 139 151 166 180 194 214 238 267 279 279 288 296 301 302 301 298 294 293 290 288 286 286 284 282 283 285 291 298 306 308 302
129 171 147 132 216 233 151 270 289 279 287 217 178 163 145 134 132 134 142 159 179 205 230 247 263 272 281 283 281 290 294 295 294 292 292 291 289 286 284 283 283 285 285 285 288 296 301 299 307
Wind_Speed_850mb
14 8 13 8 7 8 2 4 1 6 3 4 12 9 8 8 3 5 32 23 20 20 19 18 13 10 11 13 14 12 11 11 11 12 9 9 8 8 7 9 9 13 13 12 8 6 5 8 12
11 8 12 8 8 5 3 3 9 6 16 31 21 13 7 5 7 20 27 22 23 19 17 14 15 12 11 12 14 14 13 13 18 12 4 5 10 15 20 18 20 16 14 14 9 7 4 6 8
8 6 6 8 6 6 8 9 11 17 20 9 9 11 8 6 12 20 19 23 26 21 17 14 14 12 10 11 12 13 13 13 13 9 4 6 13 16 17 12 8 8 12 10 7 7 4 4 5
6 5 11 8 7 5 5 11 17 25 4 6 19 12 10 10 11 11 23 24 23 21 20 15 12 10 8 9 9 11 11 9 7 8 9 12 5 5 10 11 10 12 14 13 10 11 5 3 5
6 7 8 8 3 3 4 17 45 12 12 13 10 10 12 11 12 16 23 23 23 24 18 15 11 9 6 5 6 7 8 8 5 4 5 6 6 2 6 9 11 13 14 11 10 5 0 6 8
8 6 8 6 5 2 1 20 22 11 15 17 13 19 11 15 18 22 23 24 22 15 13 11 9 8 6 3 3 3 4 5 5 2 1 2 2 0 4 5 6 7 9 11 9 6 3 6 9
11 7 8 9 10 5 10 26 19 16 15 12 20 11 14 23 23 25 25 23 19 16 13 11 7 6 3 2 2 4 5 4 3 2 2 4 5 6 6 7 8 7 7 6 7 7 7 9 9
7 10 7 5 9 7 12 25 14 19 12 12 20 9 11 33 29 28 25 21 17 14 12 10 9 7 5 2 3 6 7 8 7 6 6 7 8 9 9 8 9 10 10 10 10 10 11 12 13
6 8 5 11 13 6 19 9 14 13 18 16 18 11 17 36 35 30 26 22 18 13 10 8 8 6 5 2 3 6 8 10 10 11 11 11 11 12 13 13 13 12 11 11 12 14 16 18 17
9 7 14 5 7 5 10 9 26 13 19 14 25 21 27 37 37 33 28 22 17 12 8 5 4 2 1 2 4 7 7 6 10 14 15 16 15 16 16 16 17 16 16 15 15 18 19 19 18
6 8 10 5 6 4 6 10 21 19 6 27 46 37 35 43 40 34 29 22 16 13 9 5 5 7 8 8 10 9 9 9 8 9 12 12 18 15 14 14 15 15 15 15 18 19 20 20 19
6 7 10 8 5 8 7 10 12 24 12 28 28 35 38 48 44 37 30 25 21 13 9 10 12 14 16 18 18 16 15 13 11 11 12 16 19 16 16 14 15 18 19 19 21 20 19 21 22
5 7 9 10 5 5 9 8 10 23 21 19 31 38 44 48 42 33 26 24 21 14 15 18 20 20 21 23 22 23 21 18 15 16 17 16 16 14 14 19 18 21 21 23 24 25 25 23 23
5 7 7 8 7 3 7 7 8 12 22 22 31 42 47 49 41 34 31 27 23 20 23 22 20 18 17 18 20 24 27 26 25 24 23 24 22 22 23 22 22 25 23 26 29 30 30 28 26
9 5 5 8 8 5 4 7 12 14 17 21 34 43 47 43 40 37 33 28 25 26 26 23 20 17 16 18 20 23 27 30 31 30 28 29 31 29 29 30 30 28 29 29 31 33 34 32 30
8 9 4 3 7 5 9 16 8 20 23 22 32 40 42 42 43 38 34 30 29 29 28 25 24 24 24 25 27 26 26 28 32 35 35 35 37 35 38 39 35 36 34 33 34 31 35 32 31
11 7 8 13 5 1 5 14 7 20 21 25 27 36 37 39 39 38 36 34 32 31 29 28 28 28 29 30 32 32 32 33 35 36 38 37 39 42 44 44 41 37 34 35 35 35 36 36 34
11 6 4 6 5 5 1 18 9 5 10 18 30 34 35 37 41 41 38 35 34 34 32 29 29 29 30 30 32 35 39 41 43 42 42 40 39 38 39 38 36 35 34 36 41 36 39 38 38
13 8 4 5 5 2 9 14 25 34 30 33 32 33 36 38 45 46 40 35 33 31 27 25 27 29 30 30 33 37 37 37 35 34 34 32 29 26 26 26 33 36 35 34 36 36 39 37 38
7 8 5 4 3 7 7 21 25 22 27 48 56 54 48 42 42 51 44 38 34 30 27 26 27 27 27 27 27 24 24 23 20 16 14 12 10 14 20 27 28 32 32 31 35 38 36 35 36
4 9 6 5 4 3 10 14 11 7 18 41 53 50 50 56 50 51 50 40 33 29 25 23 21 20 19 17 15 14 12 7 2 2 5 12 16 15 21 22 26 28 32 39 42 36 33 30 29
8 11 9 5 5 6 6 10 11 8 14 10 26 21 36 51 52 53 50 42 34 27 21 18 16 12 9 6 5 4 2 3 5 10 14 17 18 20 25 35 38 38 31 23 21 20 19 19 19
10 10 10 4 6 5 4 2 15 8 10 7 15 7 12 27 47 54 47 40 32 23 18 14 9 5 5 4 5 6 6 6 11 15 18 22 25 27 30 31 26 23 20 18 17 17 17 18 20
16 12 11 7 4 3 8 8 9 7 4 7 8 7 6 14 31 46 43 34 24 19 15 9 8 8 7 5 3 2 5 9 12 16 19 20 22 24 24 23 21 20 18 18 17 17 17 19 20
4 10 5 6 4 9 3 3 18 13 10 8 17 5 8 18 32 38 35 30 25 19 14 13 12 9 7 5 3 3 6 8 12 16 19 21 21 21 21 20 20 19 18 18 16 16 17 19 21
8 10 9 12 7 6 2 10 10 3 6 10 4 18 23 28 30 30 28 25 21 20 20 19 15 11 8 6 6 7 10 12 15 19 21 21 22 22 22 22 21 19 17 16 17 19 20 20 20
11 7 8 11 5 3 7 11 16 3 7 12 16 25 27 27 27 25 19 18 20 23 24 18 13 7 5 7 10 12 15 17 19 21 23 24 24 24 24 23 21 19 18 18 19 19 19 18 17
9 15 6 5 2 8 7 8 9 4 4 5 9 22 23 22 22 22 14 15 21 23 16 12 9 6 9 13 16 19 21 23 24 24 25 26 27 26 25 24 22 20 20 20 19 17 16 15 14
7 5 7 8 7 8 2 9 10 7 8 12 21 23 24 21 20 17 14 15 17 18 15 13 13 14 20 23 22 24 26 27 28 28 29 28 28 27 26 24 23 22 21 20 18 16 14 13 12
4 12 10 8 9 5 5 10 3 11 15 20 24 23 22 22 19 14 11 11 11 12 14 17 21 24 26 28 28 29 30 30 30 30 30 30 28 27 26 24 23 22 21 18 16 13 11 11 10
Wind_Direction_850mb
11 96 130 134 67 67 90 201 169 138 143 143 132 127 147 63 142 147 145 142 143 144 138 136 134 109 81 80 86 113 132 134 122 102 108 102 75 57 71 75 81 77 61 57 89 83 78 45 35
23 127 127 109 87 83 242 211 162 188 132 118 105 106 70 81 79 135 149 148 141 141 137 130 118 105 83 76 79 94 109 119 121 135 148 66 55 69 76 66 75 74 43 38 50 69 71 42 33
25 123 127 93 106 163 175 189 166 143 135 138 113 85 97 101 117 143 155 160 144 140 142 131 116 105 88 72 69 74 94 110 128 154 153 86 73 72 72 80 63 17 20 27 68 68 59 31 25
37 115 69 84 139 218 206 168 161 149 166 140 129 81 96 119 124 138 147 151 145 144 146 133 119 108 96 76 68 65 68 86 109 106 102 102 82 42 46 52 38 34 42 65 71 92 78 51 357
85 87 66 84 157 245 259 171 158 152 149 141 140 151 118 132 127 135 143 140 140 142 140 132 127 118 106 84 64 58 55 61 81 105 103 103 112 223 8 37 47 50 48 54 71 83 279 326 333
84 78 72 159 198 257 180 168 159 148 152 154 129 134 131 138 133 137 137 136 139 142 139 135 135 141 128 110 48 33 35 36 37 61 39 148 143 200 341 6 21 32 40 46 45 32 8 337 321
100 77 157 142 163 161 190 168 169 171 164 195 156 124 146 152 146 144 144 139 134 134 131 123 121 135 129 94 3 331 329 326 328 335 297 272 282 297 323 333 341 342 343 358 4 11 6 355 347
78 93 113 178 178 194 171 163 185 172 189 161 165 172 178 169 159 156 157 157 155 148 142 129 117 115 127 106 344 303 291 288 289 290 287 280 281 286 294 296 304 315 326 312 324 329 332 333 327
86 66 159 191 156 179 158 157 165 186 162 168 188 176 164 170 165 166 170 172 172 166 159 142 133 124 112 80 350 336 298 282 287 283 275 275 278 284 286 290 289 295 301 313 314 313 312 314 321
81 106 206 194 174 135 172 183 163 163 165 197 188 181 172 178 176 174 176 176 169 167 164 163 180 180 61 2 344 346 334 336 314 285 286 280 275 276 283 287 290 287 288 296 301 308 309 307 311
117 159 166 170 161 191 169 193 175 152 217 203 200 186 182 185 187 183 175 173 157 167 183 195 251 271 288 299 296 308 315 311 324 356 16 337 288 275 281 284 284 288 285 288 299 303 308 306 310
118 136 153 160 183 166 182 168 195 202 196 212 216 206 197 191 193 189 185 178 172 178 203 234 251 263 275 277 280 279 285 297 308 311 329 344 345 317 301 307 300 308 308 300 296 300 303 302 307
145 149 140 145 147 154 180 194 212 231 218 226 215 206 206 197 196 192 190 186 192 204 220 236 248 262 269 269 270 271 272 277 288 287 284 295 311 306 303 298 302 305 301 296 294 299 304 304 307
154 126 128 165 181 200 179 194 193 227 212 222 208 201 198 195 195 196 201 205 216 218 227 238 254 271 268 264 271 273 266 262 266 274 279 284 289 291 300 308 304 302 310 300 297 297 297 298 302
107 89 353 206 187 203 140 245 223 202 200 202 195 194 192 193 196 202 209 219 223 221 230 244 254 259 267 267 274 280 275 266 265 268 273 272 278 286 292 293 296 301 300 302 304 298 298 296 294
82 52 123 337 158 199 143 263 232 191 192 192 194 193 195 195 201 208 212 221 227 234 237 244 248 250 256 264 271 276 278 272 268 267 265 264 263 262 269 269 272 282 291 293 293 292 291 295 301
8 193 201 320 210 21 129 264 286 197 211 207 199 203 203 204 207 213 219 226 233 233 234 240 246 251 256 262 269 275 279 280 277 274 272 269 266 265 267 271 272 276 281 287 289 293 296 300 296
179 172 213 230 346 66 345 264 274 262 247 230 222 218 217 215 216 221 224 226 226 227 231 240 245 253 260 267 273 278 279 276 272 268 269 272 270 270 271 274 278 279 283 281 283 285 287 288 288
126 118 176 242 320 255 241 260 271 271 262 251 243 233 224 226 222 225 224 220 215 215 222 236 253 262 270 278 282 282 282 277 270 267 268 270 273 278 278 264 278 289 283 288 289 289 287 293 293
116 116 221 296 356 191 324 278 264 235 247 248 249 240 234 229 225 222 222 215 210 213 223 239 253 265 273 280 286 285 286 278 274 267 266 274 279 283 281 283 283 287 287 285 286 285 284 286 291
107 160 191 193 343 61 330 290 303 285 247 253 253 254 249 238 227 220 216 214 213 218 228 244 257 264 272 279 281 285 301 296 286 261 276 272 290 289 287 286 283 282 281 282 287 289 288 290 290
157 193 145 142 67 243 30 289 301 283 280 270 270 255 248 239 229 220 208 208 210 218 231 245 251 258 270 270 247 230 216 228 253 261 267 278 287 291 288 289 290 289 290 295 299 302 304 306 304
203 137 159 109 99 40 311 226 274 334 306 352 6 265 257 231 223 209 200 199 204 213 221 226 226 212 189 184 194 213 226 258 262 265 274 283 287 288 289 296 300 298 300 303 304 310 315 316 313
153 91 55 57 85 336 245 178 272 240 229 312 352 282 241 198 193 189 187 190 196 203 208 196 170 161 148 145 148 217 250 262 271 276 281 290 294 295 296 295 296 297 300 302 307 313 319 319 316
100 104 25 356 356 227 343 159 252 272 284 271 299 212 145 150 165 174 180 180 184 188 174 159 155 142 116 93 55 341 310 299 291 290 292 295 296 299 298 297 295 297 300 302 306 311 315 318 318
167 145 155 204 199 272 92 233 247 193 344 341 165 146 140 145 156 163 166 170 172 162 157 156 142 110 82 41 359 328 314 306 301 300 302 304 303 301 300 297 297 299 297 296 301 307 310 314 317
182 194 153 106 29 35 217 285 300 93 50 68 127 140 147 152 154 156 154 160 162 161 160 149 130 105 34 342 319 311 307 304 301 299 297 296 295 294 292 289 288 287 287 290 296 300 305 310 313
162 155 87 15 197 259 279 270 245 351 27 127 182 164 154 153 157 159 156 162 169 170 163 171 196 251 281 292 302 308 308 307 304 300 299 295 293 290 287 285 285 285 285 288 290 293 300 307 312
145 191 73 125 143 176 272 259 216 237 254 206 195 174 162 155 150 147 139 151 166 180 194 214 238 267 279 279 288 296 301 302 301 298 294 293 290 288 286 286 284 282 283 285 291 298 306 308 302
129 171 147 132 216 233 151 270 289 279 287 217 178 163 145 134 132 134 142 159 179 205 230 247 263 272 281 283 281 290 294 295 294 292 292 291 289 286 284 283 283 285 285 285 288 296 301 299 307